Regional Weather Roundup
Issued by NWS Mobile, AL

Home | Current Version | Previous Version | Text Only | Print | Product List | Glossary On
Versions: 1 2 3 4 5 6 7 8 9 10 11 12 13 14 15 16 17 18 19 20 21 22 23 24 25 26 27 28 29 30 31 32 33 34 35 36 37 38 39 40 41 42 43 44 45 46 47 48 49 50
000
ASUS44 KMOB 241112
RWRMOB
REGIONAL WEATHER ROUNDUP
NATIONAL WEATHER SERVICE MOBILE AL
600 AM CDT SAT JUN 24 2017

NOTE: "FAIR" INDICATES FEW OR NO CLOUDS BELOW 12,000 FEET WITH NO
      SIGNIFICANT WEATHER AND/OR OBSTRUCTIONS TO VISIBILITY.

  * THESE STATIONS ARE PART OF THE UNIVERSITY OF SOUTH ALABAMA
    MESONET AND ARE NOT UNDER NWS OR FAA QUALITY CONTROL.

ALZ061>064-241200-
COASTAL ALABAMA

CITY           SKY/WX    TMP DP  RH WIND       PRES   REMARKS
MOBILE REG APT CLOUDY    76  73  91 S7        30.02R
BROOKLEY FIELD MOCLDY    76  76 100 CALM      30.02R
USA CAMPUS*      N/A     72  72 100 CALM      30.01R
DOG RIVER*       N/A     75  75 100 CALM      30.77R


CITY           SKY/WX    TMP DP  RH WIND       PRES   REMARKS
GULF SHORES    PTCLDY    78  78 100 SW5       30.01R

$$

ALZ051>060-241200-
INTERIOR SOUTHWEST AND SOUTH CENTRAL ALABAMA

CITY           SKY/WX    TMP DP  RH WIND       PRES   REMARKS
GREENVILLE     CLOUDY    77  73  87 S7        29.98R FOG
EVERGREEN      CLOUDY    78  75  90 S7        29.99R
ATMORE*        NOT AVBL
ANDALUSIA/OPP  CLOUDY    79  75  87 S3        30.00R
ANDALUSIA*       N/A     77  75  94 S3        30.01R
FLORALA APT    CLOUDY    77  74  90 SW8       30.02R
FLORALA*         N/A     75  75 100 SE2       30.69R

$$

FLZ001>006-241200-
WESTERN FLORIDA PANHANDLE

CITY           SKY/WX    TMP DP  RH WIND       PRES   REMARKS
PENSACOLA      CLEAR     80  75  84 SW6       30.01R
NAS PENSACOLA  PTCLDY    79  75  89 SW7       30.00R
MILTON         CLEAR     76  76 100 SW7       30.00R
WHTNG S FIELD  CLEAR     80  77  90 S5        30.00R


CITY           SKY/WX    TMP DP  RH WIND       PRES   REMARKS
JAY*             N/A     77  75  94 S13       30.00R
DUKE FIELD     CLEAR     76  75  97 SW3       30.01R
CRESTVIEW      CLOUDY    75  73  93 SW3       30.02R FOG
VALPARAISO     PTCLDY    78  75  89 W5        30.01R
DESTIN         MOCLDY    82  81  96 VRB5      30.01R HX  95

$$

MSZ076-079-241200-
INTERIOR SOUTHEAST MISSISSIPPI

CITY           SKY/WX    TMP DP  RH WIND       PRES   REMARKS
LEAKESVILLE*   NOT AVBL
AGRICOLA*        N/A     73  73 100 W3        30.01R

$$

MARINE OBSERVATIONS

STATION/POSITION TIME  TEMP    WIND        PRES    WAVE
                       AIR SEA DIR/SP/G            HT/PER
                 (UTC) (F)     (DEG/KT/KT) (MB)    (FT/S)
PASCAGOULA       1048   80     220/  6/  9 1016.0R
PETIT BOIS ISLND 1048   80     240/ 12/ 14 1016.9R
GRAND BAY        0945   81     230/  9     1016.0S
KATRINA CUT      1000   81     230/ 14     1015.2
CEDAR POINT      1030   81     230/ 12     1016.3R
E DAUPHIN ISLAND 1000   81     220/ 11/ 15 1015.0R
MIDDLE BAY LIGHT 1000   81     220/ 15     1015.6
USCG MOBILE BAY  1048   76 81  220/  2/  4 1016.7R
STATE DOCKS      1048   76 80              1016.0R
MEAHER PARK      1030   77     200/ 14     1015.9R
FORT MORGAN      1048   81     240/ 14/ 16   N/A
12 S ORANGE BCH  0950   80 81  210/ 12/ 14 1014.7R   3/ 6
PENSACOLA BAY    1048   80 83              1016.4R
64 S DAUPHIN ISL 1050   81 81  210/ 10/ 12 1016.1R   3/ 7
67 S FORT MORGAN 1030   79     210/ 10     1016.3R

$$

SELECTED LOCATIONS ACROSS THE REGION

CITY           SKY/WX    TMP DP  RH WIND       PRES   REMARKS
NEW ORLEANS    CLOUDY    78  78 100 CALM      30.01R
GULFPORT       MOCLDY    78  78 100 CALM      30.00R
PASCAGOULA AP  LGT RAIN  77  74  90 CALM      30.00R FOG
PASCAGOULA*    NOT AVBL
HATTIESBURG    LGT RAIN  73  71  93 W5        29.98R
LAUREL         CLOUDY    72  68  88 NW6       30.02R
MERIDIAN       CLOUDY    75  73  93 CALM      30.00R
JACKSON        MOCLDY    72  70  93 CALM      30.03R
MONTGOMERY     CLOUDY    78  73  84 S5        29.96R
TROY           CLOUDY    75  75 100 S5        30.00S FOG
ASHFORD*         N/A     77  75  94 S3        30.01R
DOTHAN         PTCLDY    76  76 100 SW7       30.04S
PANAMA CITY    PTCLDY    77  74  90 CALM      30.00R

$$




USA.gov is the U.S. government's official web portal to all federal, state and local government web resources and services.